Location: Goettingen
(51.5300°N, 9.9433°E)
Time: 12:02:16
(UTC+02:00)

Tiangong - Pass Details

Date: 03 October 2021
Orbit: 382 x 385 km, 41.5° (Epoch: 17 October)

Event Time Altitude Azimuth Distance (km) Brightness Sun altitude
Exits shadow 05:27:55 13° 166° (SSE) 1,224 3.5 -18.7°
Drops below altitude 10° 05:28:59 10° 147° (SSE) 1,397 4.1 -18.5°
Sets 05:31:47 0° 120° (ESE) 2,248 5.6 -18.1°
